BRX7C EDDW-EKBI

Flight info

Callsign BRX7C
Flight time N/A
Altitude 25000
Route WSN1M/09 WSN Y850 MUBZI M105 AMRAK/N0417F240 DCT LOKSA
Aircraft RJ85/M-SDFGIRWY/LB1

Departure

Time 2026-04-28 10:42
Airport Bremen Airport (EDDW)

Arrival

Time N/A
Airport Billund Airport (EKBI)
Time Latitude Longitude Altitude Speed Heading
2026-04-28 10:31 53.05221 8.78401 22 ft 0 kts 62°
2026-04-28 10:36 53.05215 8.78374 24 ft 4 kts 76°
2026-04-28 10:36 53.05205 8.78340 24 ft 2 kts 35°
2026-04-28 10:37 53.05183 8.78325 24 ft 4 kts 355°
2026-04-28 10:37 53.05163 8.78345 25 ft 3 kts 307°
2026-04-28 10:37 53.05150 8.78380 23 ft 2 kts 302°
2026-04-28 10:37 53.05149 8.78381 22 ft 0 kts 302°
2026-04-28 10:39 53.05157 8.78362 23 ft 6 kts 302°
2026-04-28 10:40 53.05182 8.78252 22 ft 15 kts 286°
2026-04-28 10:40 53.05184 8.78057 22 ft 19 kts 250°
2026-04-28 10:40 53.05107 8.77874 22 ft 20 kts 227°
2026-04-28 10:40 53.05008 8.77695 22 ft 22 kts 231°
2026-04-28 10:41 53.04901 8.77527 21 ft 22 kts 212°
2026-04-28 10:41 53.04784 8.77455 23 ft 14 kts 186°
2026-04-28 10:41 53.04764 8.77452 23 ft 0 kts 180°
2026-04-28 10:41 53.04733 8.77455 24 ft 10 kts 174°
2026-04-28 10:42 53.04662 8.77560 20 ft 24 kts 93°
2026-04-28 10:42 53.04676 8.78251 21 ft 95 kts 88°
2026-04-28 10:42 53.04724 8.79615 155 ft 134 kts 84°
2026-04-28 10:42 53.04785 8.81218 691 ft 145 kts 84°
2026-04-28 10:43 53.04872 8.82947 1410 ft 149 kts 83°
2026-04-28 10:43 53.04950 8.84638 2315 ft 149 kts 86°
2026-04-28 10:43 53.04988 8.86356 2761 ft 153 kts 88°
2026-04-28 10:43 53.05012 8.88300 3101 ft 182 kts 88°
2026-04-28 10:44 53.05044 8.90496 3776 ft 199 kts 88°
2026-04-28 10:44 53.05077 8.92881 4471 ft 213 kts 88°
2026-04-28 10:44 53.05204 8.95451 4944 ft 232 kts 73°
2026-04-28 10:44 53.06186 8.97631 5529 ft 249 kts 34°
2026-04-28 10:45 53.07830 8.98622 6250 ft 259 kts 17°
2026-04-28 10:45 53.09607 8.99250 6874 ft 262 kts 14°
2026-04-28 10:45 53.11419 8.99734 7367 ft 266 kts
2026-04-28 10:45 53.13278 8.99481 7823 ft 274 kts 347°
2026-04-28 10:46 53.15142 8.98918 8263 ft 272 kts
2026-04-28 10:46 53.16959 8.99638 8825 ft 268 kts 19°
2026-04-28 10:46 53.18773 9.00470 9428 ft 273 kts 17°
2026-04-28 10:46 53.20619 9.01264 10040 ft 278 kts 16°
2026-04-28 10:47 53.22487 9.02083 10742 ft 278 kts 17°
2026-04-28 10:47 53.24357 9.02917 11450 ft 279 kts 18°
2026-04-28 10:47 53.26247 9.03780 12070 ft 285 kts 17°
2026-04-28 10:47 53.28168 9.04641 12779 ft 285 kts 16°
2026-04-28 10:48 53.30078 9.05485 13511 ft 286 kts 16°
2026-04-28 10:48 53.32029 9.06341 14125 ft 291 kts 16°
2026-04-28 10:48 53.34016 9.07226 14671 ft 296 kts 16°
2026-04-28 10:48 53.36002 9.08109 15292 ft 295 kts 15°
2026-04-28 10:49 53.37997 9.08987 15815 ft 299 kts 15°
2026-04-28 10:49 53.40018 9.09875 16265 ft 303 kts 15°
2026-04-28 10:49 53.42041 9.10759 16883 ft 301 kts 15°
2026-04-28 10:49 53.44068 9.11653 17378 ft 304 kts 15°
2026-04-28 10:50 53.46118 9.12556 17881 ft 306 kts 15°
2026-04-28 10:50 53.47488 9.13151 18217 ft 307 kts 15°
2026-04-28 10:50 53.50263 9.14370 18844 ft 310 kts 15°
2026-04-28 10:50 53.52334 9.15291 19187 ft 314 kts 15°
2026-04-28 10:51 53.54448 9.16220 19622 ft 314 kts 15°
2026-04-28 10:51 53.56563 9.17151 20040 ft 315 kts 15°
2026-04-28 10:51 53.58696 9.18089 20338 ft 319 kts 14°
2026-04-28 10:51 53.60843 9.19042 20721 ft 320 kts 15°
2026-04-28 10:52 53.62996 9.20000 21095 ft 320 kts 15°
2026-04-28 10:52 53.65156 9.20972 21411 ft 323 kts 14°
2026-04-28 10:52 53.67330 9.21965 21748 ft 324 kts 14°
2026-04-28 10:52 53.69520 9.22972 22096 ft 326 kts 14°
2026-04-28 10:53 53.71714 9.23956 22435 ft 327 kts 14°
2026-04-28 10:53 53.73928 9.24929 22762 ft 329 kts 14°
2026-04-28 10:53 53.76118 9.25906 23078 ft 331 kts 14°
2026-04-28 10:53 53.78374 9.26930 23395 ft 332 kts 14°
2026-04-28 10:54 53.80615 9.27923 23719 ft 333 kts 14°
2026-04-28 10:54 53.82833 9.28911 24003 ft 335 kts 14°
2026-04-28 10:54 53.85091 9.29949 24263 ft 336 kts 14°
2026-04-28 10:54 53.87349 9.30964 24520 ft 337 kts 14°
2026-04-28 10:55 53.89616 9.31992 24819 ft 337 kts 14°
2026-04-28 10:55 53.91884 9.33020 25072 ft 338 kts 14°
2026-04-28 10:55 53.94155 9.34036 25272 ft 338 kts 14°
2026-04-28 10:55 53.96439 9.35055 25348 ft 337 kts 14°
2026-04-28 10:56 53.98677 9.36086 25370 ft 331 kts 14°
2026-04-28 10:56 54.00902 9.37090 25379 ft 331 kts 14°
2026-04-28 10:56 54.03131 9.38094 25381 ft 331 kts 14°
2026-04-28 10:56 54.05358 9.39126 25384 ft 332 kts 14°
2026-04-28 10:57 54.07595 9.40142 25383 ft 332 kts 14°
2026-04-28 10:57 54.09833 9.41154 25392 ft 333 kts 14°
2026-04-28 10:57 54.12068 9.42188 25392 ft 333 kts 14°
2026-04-28 10:57 54.14307 9.43208 25405 ft 331 kts 14°
2026-04-28 10:58 54.16530 9.44220 25403 ft 330 kts 14°
2026-04-28 10:58 54.18739 9.45225 25406 ft 336 kts 14°
2026-04-28 10:58 54.21031 9.46267 25413 ft 345 kts 14°
2026-04-28 10:58 54.23400 9.47144 25415 ft 351 kts
2026-04-28 10:59 54.25822 9.46519 25447 ft 359 kts 343°
2026-04-28 10:59 54.28204 9.45069 25447 ft 367 kts 341°
2026-04-28 10:59 54.29807 9.44079 25440 ft 372 kts 341°
2026-04-28 10:59 54.32272 9.42608 25426 ft 379 kts 342°
2026-04-28 11:00 54.34806 9.41190 25418 ft 385 kts 343°
2026-04-28 11:00 54.37385 9.39843 25416 ft 389 kts 345°
2026-04-28 11:00 54.40832 9.38149 25441 ft 387 kts 345°
2026-04-28 11:00 54.42556 9.37316 25411 ft 387 kts 345°
2026-04-28 11:01 54.45154 9.36069 25410 ft 387 kts 345°
2026-04-28 11:01 54.47750 9.34844 25409 ft 387 kts 346°
2026-04-28 11:01 54.50348 9.33622 25406 ft 387 kts 346°